Coldwater, MI

1:01 PM EST on February 27, 2017 (GMT -0500)
Branch County Memorial

Weather History for KOEB - October, 2011

Change the Weather History Date:

Friday, October 14, 2011

  Actual Average (KJYM) Record (KJYM)
Temperature  
Mean Temperature 53 °F -  
Max Temperature 55 °F 61 °F 82 °F (1975)
Min Temperature 51 °F 39 °F 26 °F (1987)
Degree Days  
Heating Degree Days 12    
Growing Degree Days 3 (Base 50)    
Moisture  
Dew Point 47 °F    
Average Humidity 81    
Maximum Humidity 100    
Minimum Humidity 51    
Precipitation  
Precipitation 0.00 in - - ()
Sea Level Pressure  
Sea Level Pressure 29.46 in    
Wind  
Wind Speed 13 mph (West)    
Max Wind Speed 26 mph    
Max Gust Speed 33 mph    
Visibility 10 miles    
Events Rain    
Averages and records for this station are not official NWS values.
T = Trace of Precipitation, MM = Missing Value Source: NWS Daily Summary

Daily Weather History Graph

Daily Weather History Graph

Search for Another Location

Airport or City:

Trip Planner

Search our weather history database for the weather conditions in past years. The results will help you decide how hot, cold, wet, or windy it might be!

Date:

Astronomy

Oct. 14, 2011 Rise Set
Actual Time 7:51 AM EDT 7:00 PM EDT
Civil Twilight 7:23 AM EDT 7:28 PM EDT
Nautical Twilight 6:50 AM EDT 8:00 PM EDT
Astronomical Twilight 6:18 AM EDT 8:33 PM EDT
Moon 8:10 PM EDT (10/14) 10:22 AM EDT (10/14)
Length of Visible Light 12h 05m
Length of Day
11h 09m
Waning Gibbous, 94% of the Moon is Illuminated
Oct 14
Waning Gibbous
Oct 19
Last Quarter
Oct 26
New
Nov 2
First Quarter
Nov 10
Full

Hourly Weather History & Observations

Time (EDT) Temp. Windchill Dew Point Humidity Pressure Visibility Wind Dir Wind Speed Gust Speed Precip Events Conditions
12:14 AM 53.6 °F - 53.6 °F 100% 29.42 in 10.0 mi WNW 9.2 mph - N/A   Light Drizzle
12:34 AM 53.6 °F - 53.6 °F 100% 29.42 in 10.0 mi West 11.5 mph 16.1 mph N/A   Drizzle
12:54 AM 53.6 °F - 53.6 °F 100% 29.42 in 10.0 mi West 8.1 mph - N/A Rain Light Rain
1:14 AM 53.6 °F - 53.6 °F 100% 29.41 in 7.0 mi WNW 9.2 mph - N/A Rain Light Rain
1:35 AM 53.6 °F - 53.6 °F 100% 29.41 in 10.0 mi West 10.4 mph - N/A Rain Light Rain
1:54 AM 53.6 °F - 53.6 °F 100% 29.41 in 10.0 mi WNW 9.2 mph - N/A Rain Rain
2:14 AM 53.6 °F - 51.8 °F 94% 29.42 in 10.0 mi WNW 11.5 mph - N/A   Light Drizzle
2:35 AM 53.6 °F - 51.8 °F 94% 29.41 in 10.0 mi West 9.2 mph 16.1 mph N/A   Overcast
2:54 AM 53.6 °F - 51.8 °F 94% 29.41 in 10.0 mi West 10.4 mph - N/A   Overcast
3:14 AM 53.6 °F - 51.8 °F 94% 29.41 in 10.0 mi West 10.4 mph - N/A   Overcast
3:34 AM 53.6 °F - 51.8 °F 94% 29.41 in 10.0 mi West 17.3 mph 24.2 mph N/A   Overcast
3:54 AM 53.6 °F - 51.8 °F 94% 29.41 in 10.0 mi West 11.5 mph 20.7 mph N/A   Overcast
4:15 AM 53.6 °F - 50.0 °F 88% 29.41 in 10.0 mi West 13.8 mph 21.9 mph N/A   Overcast
4:34 AM 53.6 °F - 50.0 °F 88% 29.41 in 7.0 mi West 13.8 mph 20.7 mph N/A Rain Light Rain
4:55 AM 53.6 °F - 50.0 °F 88% 29.41 in 10.0 mi West 12.7 mph - N/A   Overcast
5:15 AM 53.6 °F - 50.0 °F 88% 29.41 in 10.0 mi West 13.8 mph 18.4 mph N/A   Overcast
5:34 AM 53.6 °F - 50.0 °F 88% 29.41 in 10.0 mi West 12.7 mph - N/A   Overcast
5:55 AM 53.6 °F - 50.0 °F 88% 29.42 in 10.0 mi West 11.5 mph 19.6 mph N/A   Overcast
6:15 AM 53.6 °F - 50.0 °F 88% 29.42 in 10.0 mi West 12.7 mph 18.4 mph N/A   Overcast
6:34 AM 51.8 °F - 50.0 °F 94% 29.42 in 10.0 mi West 11.5 mph 17.3 mph N/A   Overcast
6:55 AM 51.8 °F - 50.0 °F 94% 29.43 in 10.0 mi West 11.5 mph 20.7 mph N/A   Overcast
7:14 AM 51.8 °F - 50.0 °F 94% 29.43 in 10.0 mi West 11.5 mph - N/A   Overcast
7:34 AM 51.8 °F - 50.0 °F 94% 29.44 in 10.0 mi West 12.7 mph 18.4 mph N/A Rain Light Rain
7:55 AM 51.8 °F - 50.0 °F 94% 29.44 in 10.0 mi West 9.2 mph - N/A   Overcast
8:14 AM 51.8 °F - 50.0 °F 94% 29.44 in 10.0 mi West 16.1 mph 19.6 mph N/A   Overcast
8:34 AM 51.8 °F - 48.2 °F 88% 29.44 in 10.0 mi West 12.7 mph 18.4 mph N/A   Overcast
9:14 AM 51.8 °F - 46.4 °F 82% 29.45 in 10.0 mi West 18.4 mph 26.5 mph N/A   Overcast
9:34 AM 51.8 °F - 46.4 °F 82% 29.46 in 10.0 mi West 15.0 mph 21.9 mph N/A   Overcast
9:54 AM 51.8 °F - 46.4 °F 82% 29.47 in 10.0 mi West 17.3 mph - N/A   Overcast
10:14 AM 51.8 °F - 44.6 °F 76% 29.47 in 10.0 mi West 16.1 mph 19.6 mph N/A   Overcast
10:35 AM 51.8 °F - 44.6 °F 76% 29.47 in 10.0 mi West 13.8 mph 18.4 mph N/A   Overcast
10:54 AM 51.8 °F - 44.6 °F 76% 29.48 in 10.0 mi West 16.1 mph 24.2 mph N/A   Overcast
11:14 AM 51.8 °F - 44.6 °F 76% 29.48 in 10.0 mi West 18.4 mph 25.3 mph N/A   Overcast
11:35 AM 51.8 °F - 44.6 °F 76% 29.49 in 10.0 mi West 15.0 mph 23.0 mph N/A   Overcast
11:54 AM 51.8 °F - 42.8 °F 71% 29.49 in 10.0 mi West 19.6 mph 26.5 mph N/A   Overcast
12:14 PM 51.8 °F - 42.8 °F 71% 29.50 in 10.0 mi West 18.4 mph 27.6 mph N/A   Overcast
12:34 PM 51.8 °F - 41.0 °F 67% 29.50 in 10.0 mi West 18.4 mph 26.5 mph N/A   Overcast
12:54 PM 53.6 °F - 42.8 °F 67% 29.51 in 10.0 mi West 17.3 mph 25.3 mph N/A   Overcast
1:15 PM 51.8 °F - 41.0 °F 67% 29.51 in 10.0 mi West 23.0 mph 33.4 mph N/A   Overcast
1:35 PM 53.6 °F - 42.8 °F 67% 29.51 in 10.0 mi West 16.1 mph 25.3 mph N/A   Overcast
1:54 PM 53.6 °F - 41.0 °F 62% 29.52 in 10.0 mi West 25.3 mph 31.1 mph N/A   Overcast
2:15 PM 55.4 °F - 41.0 °F 58% 29.51 in 10.0 mi West 20.7 mph 33.4 mph N/A   Overcast
2:34 PM 55.4 °F - 41.0 °F 58% 29.52 in 10.0 mi West 19.6 mph 27.6 mph N/A   Overcast
2:54 PM 53.6 °F - 41.0 °F 62% 29.52 in 10.0 mi West 26.5 mph 32.2 mph N/A   Overcast
3:15 PM 53.6 °F - 41.0 °F 62% 29.53 in 10.0 mi West 21.9 mph 27.6 mph N/A   Overcast
3:34 PM 53.6 °F - 41.0 °F 62% 29.53 in 10.0 mi West 21.9 mph 29.9 mph N/A   Overcast
3:54 PM 53.6 °F - 41.0 °F 62% 29.54 in 10.0 mi West 15.0 mph 21.9 mph N/A   Overcast
4:15 PM 53.6 °F - 41.0 °F 62% 29.54 in 10.0 mi West 21.9 mph 26.5 mph N/A   Overcast
4:34 PM 55.4 °F - 37.4 °F 51% 29.54 in 10.0 mi WNW 18.4 mph 28.8 mph N/A   Mostly Cloudy
4:54 PM 55.4 °F - 37.4 °F 51% 29.54 in 10.0 mi West 20.7 mph 31.1 mph N/A   Mostly Cloudy
5:15 PM 53.6 °F - 39.2 °F 58% 29.55 in 10.0 mi WNW 16.1 mph 26.5 mph N/A   Mostly Cloudy
5:34 PM 53.6 °F - 37.4 °F 54% 29.55 in 10.0 mi West 20.7 mph 26.5 mph N/A   Overcast
5:54 PM 53.6 °F - 37.4 °F 54% 29.55 in 10.0 mi West 17.3 mph 26.5 mph N/A   Overcast
6:15 PM 53.6 °F - 39.2 °F 58% 29.55 in 10.0 mi West 17.3 mph 24.2 mph N/A   Overcast
6:34 PM 53.6 °F - 39.2 °F 58% 29.55 in 10.0 mi West 13.8 mph 29.9 mph N/A   Overcast
6:55 PM 53.6 °F - 39.2 °F 58% 29.55 in 10.0 mi West 19.6 mph 26.5 mph N/A   Overcast
7:14 PM 53.6 °F - 41.0 °F 62% 29.56 in 10.0 mi West 8.1 mph - N/A   Overcast
7:34 PM 48.2 °F - 42.8 °F 82% 29.58 in 7.0 mi West 17.3 mph 39.1 mph N/A Rain Rain
7:54 PM 46.4 °F 39.8 °F 42.8 °F 87% 29.59 in 7.0 mi West 16.1 mph 23.0 mph N/A Rain Light Rain
8:14 PM 46.4 °F 40.4 °F 42.8 °F 87% 29.59 in 3.0 mi WNW 13.8 mph 21.9 mph N/A Rain Rain
8:35 PM 46.4 °F 40.4 °F 44.6 °F 93% 29.60 in 2.5 mi West 13.8 mph 18.4 mph N/A   Overcast
8:55 PM 46.4 °F 42.4 °F 44.6 °F 93% 29.59 in 7.0 mi WNW 8.1 mph 16.1 mph N/A Rain Light Rain
9:14 PM 46.4 °F 39.8 °F 44.6 °F 93% 29.60 in 4.0 mi West 16.1 mph 24.2 mph N/A Rain Light Rain
9:35 PM 46.4 °F 41.9 °F 42.8 °F 87% 29.59 in 10.0 mi West 9.2 mph - N/A   Mostly Cloudy
9:54 PM 46.4 °F 41.9 °F 42.8 °F 87% 29.60 in 10.0 mi West 9.2 mph - N/A   Overcast
10:14 PM 46.4 °F 42.9 °F 42.8 °F 87% 29.60 in 10.0 mi West 6.9 mph - N/A   Overcast
10:35 PM 44.6 °F 40.7 °F 42.8 °F 93% 29.60 in 10.0 mi West 6.9 mph - N/A   Scattered Clouds
10:54 PM 44.6 °F 40.2 °F 42.8 °F 93% 29.59 in 10.0 mi West 8.1 mph - N/A   Scattered Clouds
11:14 PM 44.6 °F 40.2 °F 41.0 °F 87% 29.59 in 10.0 mi West 8.1 mph - N/A   Scattered Clouds
11:35 PM 44.6 °F 40.7 °F 41.0 °F 87% 29.58 in 10.0 mi WSW 6.9 mph - N/A   Scattered Clouds
11:54 PM 44.6 °F 40.7 °F 41.0 °F 87% 29.58 in 10.0 mi SW 6.9 mph - N/A   Scattered Clouds